Theta_e
344 342 340 340 343 346 349 350 351 351 351 351 351 351 351 351 351 350 351 350 349 349 349 347 345 345 344 343 341 338 338 337 336 339 341 339 335 331 332 332 332 332 331 331 331 331 332 332 334 335 336 337 337 339 339 340 339 339 339 340 339 339 339 339 339 338 336 330 324 321 319 319 319 318 318 318 318 321 323 323 323 323 323 323 323
343 341 337 338 344 349 350 350 351 352 351 350 350 351 352 351 352 351 351 351 349 349 349 348 346 345 345 346 345 343 342 341 339 341 341 340 338 335 335 336 335 335 335 335 335 335 336 336 337 338 339 339 339 340 340 340 339 338 338 339 338 337 338 337 336 336 333 325 321 320 320 319 319 318 319 319 320 322 323 324 324 324 324 324 324
341 340 339 340 345 348 350 351 351 350 350 350 349 350 350 348 348 348 350 350 349 350 349 347 347 345 345 346 346 345 345 345 343 343 343 341 340 338 336 336 336 336 337 337 337 338 338 339 339 339 339 339 340 340 340 340 339 337 338 338 336 335 336 335 334 332 327 322 320 320 320 320 320 320 320 321 322 323 324 324 324 324 325 325 325
339 341 342 344 346 348 350 350 350 348 348 347 345 347 348 345 344 345 349 351 349 349 349 348 347 346 346 346 346 346 346 347 345 345 344 341 339 339 337 335 335 334 335 336 337 337 337 337 337 337 338 338 339 338 338 339 339 337 336 336 334 334 334 331 328 325 322 320 321 321 321 322 322 322 323 323 324 324 324 325 325 325 325 325 325
340 341 345 346 346 347 348 348 349 347 345 343 345 348 350 349 347 348 350 351 350 350 350 348 348 347 346 346 346 346 346 346 346 345 345 343 341 341 340 336 335 336 335 334 334 334 334 333 334 335 335 336 336 335 336 336 336 334 331 329 329 329 327 325 323 321 321 320 321 322 323 323 324 324 324 325 325 325 325 325 325 325 325 325 325
341 341 346 347 344 345 347 346 344 346 346 346 350 351 351 351 350 350 350 350 349 350 350 349 348 347 346 345 345 346 346 346 346 345 345 345 343 343 343 341 340 339 337 336 334 333 332 333 332 332 332 331 331 331 331 331 330 328 326 323 323 322 322 321 321 321 321 322 323 323 324 324 325 325 325 325 325 324 324 324 324 324 324 324 324
341 341 345 348 348 346 347 345 342 348 350 347 351 352 351 351 351 351 350 349 349 348 349 349 348 347 346 346 345 346 346 346 346 346 345 345 345 344 344 343 342 338 336 336 336 335 335 334 333 331 330 328 327 327 326 326 325 323 322 321 321 321 321 321 321 322 322 323 324 324 324 324 324 324 324 324 324 324 323 323 323 323 323 323 323
342 340 344 349 351 349 347 344 343 349 349 346 350 352 351 349 348 350 351 350 349 347 348 349 348 347 346 346 346 346 346 347 347 347 347 346 346 345 343 342 339 334 331 332 335 335 334 333 333 332 329 327 326 325 324 323 323 322 322 322 322 322 322 322 322 322 323 323 323 324 324 324 324 324 324 324 324 324 324 324 324 323 323 323 323
341 341 345 350 351 351 348 344 345 349 347 348 351 350 350 349 344 346 349 351 350 347 347 347 347 347 345 345 345 346 346 347 347 346 347 346 346 345 345 342 338 335 336 338 338 336 333 330 330 330 328 327 325 323 324 323 323 323 323 323 323 323 323 323 324 324 324 324 324 324 324 325 325 325 325 325 325 325 325 325 325 324 324 324 324
343 342 346 350 352 353 350 345 346 346 344 348 350 348 348 348 345 343 345 350 351 349 347 346 346 345 345 345 345 346 346 346 346 346 346 346 345 345 346 344 343 341 338 339 339 335 332 331 330 330 327 325 325 324 324 324 324 324 325 325 325 325 325 325 325 326 326 326 326 326 326 325 326 326 325 325 325 325 325 325 325 325 325 325 325
344 343 345 349 351 353 350 346 346 345 345 349 350 348 344 344 346 343 342 346 350 351 349 347 346 345 345 345 345 346 346 346 346 346 345 345 345 345 345 344 345 343 336 337 341 338 333 330 330 332 329 325 325 325 325 325 325 326 326 326 327 327 327 327 327 327 326 326 327 326 326 326 326 326 326 327 327 327 328 328 328 328 328 328 328
345 344 344 347 350 353 349 345 346 344 344 349 350 346 342 342 343 342 342 346 348 349 349 347 346 345 345 344 345 345 344 345 345 344 345 344 345 345 345 344 344 343 340 341 344 343 336 327 328 333 331 329 327 326 326 327 327 327 327 327 328 327 327 327 327 327 327 327 327 327 327 327 328 328 329 331 331 332 333 334 334 334 334 334 334
345 345 345 345 347 348 346 345 347 345 342 345 346 343 341 341 340 341 344 348 350 349 348 347 346 345 345 343 344 344 343 344 344 344 344 344 345 345 345 344 344 344 344 342 341 343 340 331 332 336 332 330 330 329 327 328 328 327 328 328 328 328 328 328 328 327 327 328 328 328 329 330 331 332 334 336 338 339 340 341 341 341 342 342 341
346 346 345 345 345 344 344 344 346 345 343 344 343 342 342 340 341 345 347 348 351 349 346 347 347 345 345 343 342 342 343 343 343 343 344 344 344 344 344 344 345 344 345 344 342 344 343 340 340 339 332 329 331 330 328 328 328 328 328 328 328 328 328 328 328 329 329 330 331 332 333 334 335 337 339 341 342 344 345 345 346 346 346 346 346
346 346 345 346 344 343 346 345 343 343 344 345 343 343 343 340 342 348 350 349 350 349 347 346 346 345 344 343 342 343 344 344 343 343 343 343 343 343 343 343 344 344 345 345 345 346 346 345 342 337 333 330 331 330 329 329 328 328 329 328 329 329 329 330 330 331 332 334 335 337 339 340 341 342 343 344 345 346 347 348 348 348 348 348 348
346 346 345 346 344 344 347 346 342 343 344 343 343 344 344 343 344 346 348 351 351 350 348 346 346 345 345 343 342 342 343 343 344 343 342 342 342 341 342 343 343 344 345 345 345 345 346 346 341 336 335 333 331 330 330 330 329 329 329 329 330 329 330 331 332 334 336 338 339 341 343 344 345 345 346 347 347 348 348 348 348 348 348 348 348
344 345 345 345 344 344 345 344 343 343 343 343 346 346 345 346 345 344 347 351 352 351 349 348 347 346 346 345 343 344 344 344 343 343 343 342 341 341 341 343 342 343 345 345 344 345 346 346 342 337 336 334 333 332 331 331 330 330 330 330 330 331 333 335 336 339 340 341 342 343 344 345 345 346 346 347 347 348 348 348 348 348 348 349 349
343 344 344 344 344 344 343 344 345 343 342 344 346 346 347 349 347 348 351 350 351 353 351 349 348 346 347 347 346 347 347 347 345 344 344 342 340 341 342 342 341 343 344 344 345 345 345 345 343 341 340 337 336 334 333 332 332 331 331 331 332 334 337 339 340 342 343 343 344 344 344 344 345 345 346 346 346 347 347 348 349 349 350 350 351
345 344 344 345 344 344 344 344 345 344 343 342 346 350 352 350 347 347 351 348 347 352 352 350 350 349 349 348 348 348 348 347 346 344 344 343 342 341 342 342 341 342 343 343 343 344 344 344 344 345 343 339 336 334 334 334 332 332 333 334 336 338 340 341 341 341 341 342 341 342 342 343 343 344 345 345 346 347 348 348 350 350 351 352 352
345 344 343 344 344 344 344 344 344 345 343 341 346 351 350 347 344 344 346 345 346 351 353 351 351 351 350 349 349 348 347 346 346 345 344 344 343 341 342 342 342 342 342 342 342 343 344 344 343 344 344 340 336 335 336 336 335 336 338 339 340 340 341 340 338 337 336 336 336 337 339 341 342 343 344 345 346 347 348 349 350 350 351 351 352
342 342 342 344 344 345 344 343 344 343 345 348 349 348 346 345 345 344 344 345 346 348 349 350 351 352 350 350 350 348 347 346 345 345 345 344 343 342 342 343 343 343 343 343 343 343 345 345 343 344 345 343 340 339 340 340 340 341 341 341 341 340 339 336 334 332 333 334 336 337 340 341 343 344 345 346 347 348 348 348 349 349 350 351 351
342 341 342 343 343 344 344 344 344 343 346 351 350 347 345 344 346 346 344 346 345 344 347 349 350 351 351 350 351 350 349 347 345 345 345 345 344 342 342 343 343 343 344 344 345 344 345 346 345 345 347 347 344 342 341 341 341 341 341 340 338 336 334 331 330 331 333 336 339 341 343 344 345 346 347 348 348 347 347 348 349 349 349 347 343
346 344 342 343 343 343 344 345 345 344 345 347 349 350 351 351 350 347 344 345 345 345 348 349 347 347 349 350 350 350 350 348 347 347 346 346 346 344 343 343 344 344 344 344 345 345 346 347 346 348 348 346 343 342 341 341 341 341 339 336 333 331 330 329 329 330 332 334 338 341 343 344 345 347 347 347 346 346 347 348 347 344 339 334 330
347 346 344 343 343 343 344 345 344 344 344 346 350 352 354 355 353 349 347 345 344 345 348 350 349 347 350 351 350 349 350 349 348 348 348 348 348 346 345 344 344 344 344 345 346 345 346 348 348 350 350 346 342 342 342 341 340 339 335 331 330 330 328 328 328 329 331 332 335 338 340 343 344 345 346 345 346 347 347 344 339 333 329 326 325
345 346 347 345 342 342 344 344 344 344 344 345 347 348 351 354 353 352 352 348 345 345 347 351 351 350 352 353 351 350 351 350 349 348 348 349 348 348 347 345 344 344 345 345 345 345 346 348 349 349 348 346 344 341 343 344 340 334 332 330 329 329 328 327 327 328 328 330 332 334 339 342 343 344 345 345 348 347 343 338 333 328 325 323 323
347 346 347 347 344 342 343 343 344 345 345 345 345 344 346 351 352 352 354 352 347 345 347 350 351 349 352 353 352 352 352 351 350 349 348 348 348 349 350 348 345 344 345 345 345 346 347 349 349 347 343 343 343 340 342 344 338 332 331 331 330 329 328 327 327 327 328 328 330 333 338 341 343 344 346 348 349 345 340 338 337 332 326 323 323
350 346 344 345 344 342 342 342 343 344 345 345 344 344 344 347 348 348 353 353 347 345 349 351 351 349 350 351 352 353 353 352 352 350 349 349 349 351 351 349 347 345 345 345 346 346 347 348 349 346 341 340 341 340 340 339 334 331 332 334 334 330 328 327 326 326 327 328 330 333 337 340 344 346 348 349 347 342 342 344 345 340 330 324 323
351 346 343 343 342 342 342 342 342 343 344 344 343 345 344 345 346 345 349 355 350 346 350 352 352 351 350 349 350 353 355 353 353 353 352 351 351 352 351 350 349 348 346 346 348 347 346 346 348 345 339 338 339 338 337 336 332 332 333 335 334 330 327 327 326 326 326 327 330 333 336 341 345 347 349 349 345 343 345 347 347 344 333 324 323
348 347 346 344 342 342 341 342 342 341 342 343 342 344 343 343 346 344 348 355 352 347 350 354 354 354 354 352 350 353 354 352 352 355 352 348 349 351 351 350 350 349 349 349 349 350 348 346 349 348 340 335 337 337 336 334 332 333 334 334 333 331 328 326 325 324 325 327 330 332 337 342 346 347 348 348 345 344 347 348 347 344 334 324 323
345 348 348 345 342 342 341 341 341 341 341 342 341 343 343 343 344 344 346 350 351 348 348 351 353 354 354 355 354 354 355 353 354 357 353 345 346 349 351 350 348 349 351 351 350 351 349 347 349 351 344 336 339 345 345 340 335 335 335 333 332 330 327 326 325 325 324 325 330 332 337 342 345 346 348 348 346 346 347 348 346 342 333 324 323
340 341 344 345 344 342 340 339 340 340 340 340 341 341 343 343 343 346 346 345 345 347 348 350 352 352 350 351 352 352 355 355 355 357 355 349 347 349 351 350 347 348 350 351 352 351 350 350 350 351 350 342 337 340 344 344 340 336 335 333 331 329 329 327 324 325 326 324 327 332 337 342 345 345 347 347 347 347 348 347 343 339 331 324 322
337 335 337 343 345 343 342 343 343 343 340 339 341 341 341 343 343 348 351 347 342 344 349 352 355 352 348 346 348 349 352 354 354 355 355 352 349 349 350 349 346 347 347 348 352 353 352 352 349 351 352 346 339 336 337 344 346 338 333 333 330 329 334 336 329 324 326 324 324 331 337 343 345 344 345 347 347 348 349 345 339 335 330 323 321
335 334 334 339 342 342 344 347 348 347 343 338 340 341 341 342 342 343 347 346 343 343 345 348 351 351 347 344 345 346 347 349 352 354 354 352 352 351 351 349 349 351 349 347 351 354 354 352 349 351 349 342 344 342 334 340 345 338 333 332 330 328 330 339 341 331 325 326 323 328 337 343 345 344 344 346 347 348 349 343 335 330 328 323 320
331 331 332 335 338 337 341 346 346 345 342 337 339 340 340 341 341 341 344 343 342 343 343 343 344 346 345 342 342 344 345 346 346 349 352 352 352 353 353 353 353 354 351 347 348 351 354 353 350 351 349 341 343 344 334 335 338 334 332 331 333 332 325 335 348 339 325 325 325 327 337 344 345 345 343 345 346 348 348 344 333 327 326 323 321
332 329 330 334 335 333 335 339 339 339 339 338 339 341 339 339 339 342 346 345 341 340 340 341 341 342 342 341 341 344 349 349 345 346 350 350 350 351 352 352 353 354 353 349 345 346 351 353 351 350 352 347 342 340 335 333 333 332 333 331 332 335 327 331 348 347 331 326 325 326 335 343 345 345 344 344 346 347 348 346 336 327 324 323 321
337 331 329 332 333 330 331 334 333 333 336 336 338 340 339 337 337 339 341 339 338 337 338 340 342 343 343 342 342 344 348 348 343 343 347 348 347 347 347 348 347 347 350 349 346 345 346 349 349 347 347 343 337 336 335 334 334 333 334 331 329 333 331 333 348 354 342 330 327 326 333 341 345 345 344 344 345 346 347 347 341 330 323 322 322
339 336 330 329 331 331 330 331 332 332 333 334 336 339 340 339 337 337 335 333 333 335 336 337 339 340 340 341 342 342 344 343 340 342 347 347 346 345 346 348 345 342 343 342 343 344 342 343 345 343 340 338 338 337 335 334 335 336 336 335 332 332 330 332 345 352 346 337 330 326 330 338 342 346 346 345 345 345 346 347 345 336 326 322 322
338 339 335 330 329 331 330 330 331 332 331 332 333 335 339 341 340 337 334 331 329 331 333 333 333 333 333 334 336 338 339 339 340 344 345 343 341 343 344 344 344 342 339 338 337 338 338 338 339 341 343 344 343 339 335 333 334 336 337 337 340 343 338 333 337 345 349 350 343 332 330 333 336 341 346 347 346 346 345 346 346 342 332 324 322
337 340 340 335 330 329 330 330 330 331 331 331 331 332 334 339 340 335 333 333 331 330 329 329 330 332 331 331 332 334 334 334 335 340 342 340 338 339 338 336 337 338 339 343 342 339 341 343 344 347 350 350 347 342 338 334 330 331 333 336 343 348 345 337 332 335 342 347 346 342 339 337 335 336 341 345 347 346 346 345 346 345 338 328 323
342 342 343 340 334 330 329 330 329 330 330 330 331 331 332 335 337 332 328 329 332 332 330 329 331 333 333 334 335 337 337 333 331 334 338 341 339 339 338 335 334 334 338 346 349 345 345 348 349 349 349 348 345 342 340 337 334 337 341 342 342 343 345 344 340 337 335 334 343 351 350 345 340 334 332 336 341 345 346 345 344 345 342 333 325
347 346 346 345 342 336 330 329 329 330 330 329 329 330 331 333 334 332 329 327 327 329 329 330 332 332 331 334 338 340 338 331 328 328 332 335 336 338 339 336 333 332 333 338 343 342 342 344 346 346 345 346 345 346 348 348 346 345 343 339 337 341 349 353 349 345 340 336 345 352 351 348 346 343 340 339 340 344 346 344 343 344 345 339 329
348 347 347 347 347 344 338 332 329 328 329 329 328 327 328 330 330 330 330 328 327 327 326 327 330 331 332 334 337 336 331 326 325 326 328 329 330 332 335 333 333 333 333 334 335 336 338 339 342 345 346 347 347 347 350 350 348 348 346 345 346 349 352 354 353 351 346 342 347 347 342 345 348 349 350 348 345 346 346 345 344 344 345 343 334
348 348 348 348 348 348 346 342 336 331 331 330 328 327 327 327 327 327 328 327 326 326 326 325 326 329 331 332 334 333 329 324 324 324 324 326 327 328 330 331 331 332 335 336 336 336 337 339 342 345 346 347 346 342 343 343 344 348 350 349 348 350 352 354 355 355 349 344 345 342 338 343 345 346 351 351 348 347 347 346 345 344 345 344 338
348 348 348 348 348 348 348 348 346 342 338 332 328 326 327 326 326 327 328 328 329 329 328 327 325 326 328 328 331 336 336 330 325 324 324 323 324 326 327 329 331 331 331 333 334 336 338 341 345 347 346 347 347 343 341 341 342 345 346 342 340 342 347 352 354 354 351 345 342 340 342 345 343 342 350 352 347 344 343 344 344 344 345 345 340
348 348 349 348 349 349 349 349 349 349 347 342 333 327 327 327 326 328 328 328 331 334 334 331 328 326 326 326 327 330 333 330 325 323 324 323 323 324 325 327 329 330 330 330 330 332 334 337 341 342 340 341 342 339 338 337 335 334 334 335 339 342 345 347 349 351 350 346 342 342 343 344 344 345 351 352 346 340 339 341 344 344 344 344 341
348 347 348 349 348 349 349 349 350 350 350 349 343 334 329 327 327 327 327 327 328 331 332 331 329 326 325 325 325 324 326 326 325 324 324 324 324 324 324 325 327 328 330 331 330 330 330 331 333 333 332 333 333 331 330 330 329 329 330 333 338 344 346 345 344 344 343 340 340 341 339 340 346 351 351 350 346 340 335 339 343 344 344 345 342
350 350 349 349 349 349 349 350 350 351 351 351 349 343 336 332 330 329 328 328 327 327 327 327 327 326 325 326 326 325 325 324 325 325 324 324 325 325 324 325 325 326 328 329 330 330 331 330 330 330 330 330 331 330 330 332 332 332 335 337 337 340 343 342 339 340 340 337 336 337 335 338 346 352 351 350 348 343 336 337 342 344 344 344 342
351 351 351 352 351 350 350 350 350 351 352 352 352 350 345 341 340 338 335 333 331 330 329 329 329 329 329 329 328 327 327 326 326 325 325 326 326 327 326 326 325 326 328 330 330 329 330 331 331 331 331 332 334 332 331 335 337 335 337 341 339 339 340 340 340 343 345 344 343 341 339 338 344 350 351 351 349 346 342 339 339 343 345 344 342
350 351 352 353 353 352 352 352 352 351 352 352 352 352 352 350 349 348 346 343 340 338 335 335 335 334 333 333 331 330 329 328 327 326 326 327 328 328 328 328 327 327 329 334 337 333 330 331 332 333 333 332 333 333 330 331 333 334 336 338 337 338 339 342 345 348 349 348 347 348 346 343 344 348 352 351 348 347 346 344 340 342 345 344 342
350 350 351 352 353 353 353 353 353 352 352 353 353 353 353 353 353 352 352 351 349 346 343 341 339 339 337 336 334 334 332 330 330 330 328 328 329 330 330 329 329 328 327 333 342 343 338 336 336 335 335 333 332 332 331 330 331 332 334 334 333 335 339 343 347 350 349 347 347 349 349 346 347 350 352 351 349 347 348 347 343 342 344 345 343
351 351 350 350 351 352 353 353 353 353 353 353 354 354 353 353 354 354 353 354 353 352 350 348 345 343 341 339 336 335 334 332 332 332 331 330 330 330 331 331 331 329 327 331 340 346 348 348 346 342 338 335 334 332 331 330 331 332 333 332 332 335 337 339 344 349 350 348 347 348 347 347 349 351 351 351 350 349 348 348 346 345 345 345 343
Wind_Speed
9 9 10 12 13 12 10 10 10 10 9 10 10 11 11 11 11 11 11 10 9 10 10 9 10 10 10 11 11 12 12 11 11 11 9 9 9 10 10 10 10 9 8 8 7 6 5 5 5 4 4 4 5 6 6 7 7 6 6 6 6 6 6 7 7 7 7 6 6 6 6 6 6 6 6 6 6 7 7 8 8 8 8 8 8
9 10 11 13 13 11 9 9 9 9 9 9 10 10 10 11 11 10 10 10 9 10 9 9 9 9 10 10 10 10 10 10 10 10 9 8 8 8 9 8 8 8 7 7 6 5 5 5 4 4 4 5 5 5 6 6 6 6 6 6 6 6 6 6 6 6 6 6 6 5 5 6 6 7 7 7 7 7 7 8 8 8 8 9 9
9 11 11 11 11 10 9 8 7 8 9 9 10 11 11 12 12 12 12 10 9 9 9 9 9 9 9 9 9 9 9 9 8 8 7 7 7 7 7 7 6 6 5 5 5 5 5 5 4 5 5 5 4 4 4 5 5 6 5 5 6 5 5 4 4 5 5 6 6 6 6 7 7 8 8 8 7 7 7 8 8 8 8 9 9
10 11 11 10 10 9 8 8 7 8 9 9 11 12 12 13 14 13 12 10 8 9 9 8 8 8 8 8 8 8 8 8 7 7 6 6 7 7 7 7 6 6 5 5 4 5 5 5 5 5 4 4 4 4 4 4 4 4 4 4 4 4 4 4 4 5 5 6 6 6 7 8 8 8 8 7 7 7 7 7 7 8 8 8 8
10 11 10 9 9 9 7 8 8 8 9 10 10 10 9 9 10 10 10 8 8 8 8 7 7 8 8 7 8 8 8 8 7 7 7 6 7 7 7 7 7 6 6 6 5 5 6 5 5 4 4 4 3 3 3 3 3 4 4 4 4 4 4 4 5 5 5 6 6 7 7 7 7 7 7 6 6 6 6 7 7 7 7 7 7
10 11 10 8 8 8 7 7 8 8 7 8 8 6 6 7 7 8 8 7 7 7 7 6 7 7 7 7 7 8 8 7 7 7 7 6 6 7 7 6 6 6 6 6 6 6 6 6 5 4 4 4 4 3 3 4 4 5 5 5 4 4 4 5 5 6 6 6 6 6 6 6 6 6 6 6 6 6 7 7 7 7 8 8 7
9 10 10 7 6 6 6 6 7 7 6 7 7 5 5 5 6 6 6 7 7 7 7 6 6 6 7 7 7 8 7 7 8 7 7 6 6 7 6 5 5 5 5 5 5 5 5 5 5 5 5 5 4 5 5 6 6 6 6 5 5 5 5 6 6 6 6 6 5 5 5 6 6 6 6 6 6 7 7 7 8 8 8 8 8
9 9 9 7 6 5 6 6 6 5 5 6 5 4 4 4 5 6 6 7 7 7 7 7 6 6 7 7 6 7 7 6 7 6 5 6 6 6 6 6 6 6 5 5 5 4 4 5 5 5 5 5 5 6 7 6 6 6 6 6 6 6 6 6 6 6 5 5 5 5 6 6 6 7 7 7 7 7 7 7 8 8 8 8 9
9 9 8 7 6 5 5 5 5 4 4 5 4 3 4 4 4 6 6 7 7 7 7 6 6 6 6 6 6 6 6 6 6 5 5 6 6 5 5 5 5 6 6 5 5 5 5 5 5 5 5 5 6 6 6 6 7 7 7 7 7 7 7 6 6 5 5 5 5 5 6 6 7 7 7 7 7 8 8 8 8 8 8 8 9
9 9 8 7 6 5 4 4 3 3 3 4 3 2 3 4 4 5 6 6 6 5 6 5 5 5 5 5 5 5 5 5 5 5 5 5 5 5 4 4 5 5 6 5 5 5 5 4 5 6 6 6 6 6 6 6 6 7 7 7 7 7 6 6 5 5 5 5 5 5 6 6 7 7 7 8 8 9 9 9 9 9 9 9 9
9 8 8 7 5 4 4 3 3 3 3 4 2 1 2 3 3 4 6 5 5 4 4 4 4 4 4 4 3 4 4 4 5 5 5 4 4 5 4 4 5 4 5 6 5 4 5 5 6 6 6 6 6 6 6 6 6 7 7 7 6 6 6 5 5 5 5 5 6 6 6 7 7 8 8 9 9 9 10 10 10 11 11 11 11
8 7 7 6 5 4 3 3 3 3 4 4 2 1 2 2 2 3 4 4 3 3 3 3 3 3 3 3 3 3 3 4 4 4 5 4 4 5 5 5 5 4 4 4 3 2 3 6 7 6 5 5 5 6 6 6 6 6 6 6 6 6 6 6 6 6 6 6 7 7 7 8 8 8 8 9 9 10 10 11 11 12 12 12 12
7 7 6 6 6 5 4 4 3 3 4 4 3 2 2 2 2 2 3 2 2 2 2 2 2 2 3 3 4 4 3 4 4 4 4 4 4 5 5 5 5 5 4 3 3 3 3 5 6 5 5 4 5 5 6 6 6 7 7 7 6 6 6 6 6 6 6 7 7 8 8 8 8 8 9 9 10 10 11 11 12 12 13 13 13
7 7 6 6 6 5 4 4 4 4 4 3 3 2 2 2 2 2 1 1 1 1 2 2 2 2 3 4 5 5 4 4 4 4 4 4 4 4 5 5 5 4 3 3 4 4 3 4 4 4 4 5 5 5 6 6 7 7 7 6 6 6 6 6 6 6 7 7 8 8 8 8 8 9 9 9 10 10 11 11 12 13 13 14 14
7 7 6 6 5 5 4 4 4 5 4 3 3 3 3 3 3 2 2 1 1 2 3 3 3 2 3 5 6 6 5 4 5 5 5 4 4 4 4 5 4 4 3 3 3 2 2 2 3 4 5 6 6 5 6 6 7 7 6 6 6 6 6 6 6 7 7 7 8 8 8 9 9 9 10 10 10 11 11 12 13 14 15 16 16
7 7 7 6 6 5 5 5 5 5 4 4 4 3 4 3 3 4 3 2 2 2 3 4 4 3 3 4 5 6 6 5 5 5 5 4 4 4 5 4 4 3 3 3 2 1 1 1 3 5 5 5 5 5 6 6 6 6 5 5 5 5 6 6 7 7 7 8 8 9 9 10 10 11 11 12 12 13 14 15 16 17 18 19 19
8 8 7 6 6 5 5 5 5 5 5 4 4 4 4 3 3 4 5 4 3 2 2 3 3 4 4 4 5 5 4 4 5 4 3 4 5 5 5 4 4 3 3 3 2 2 2 1 3 4 5 5 5 5 5 5 5 5 5 5 5 5 6 7 8 9 9 10 10 11 12 12 13 14 14 15 15 16 17 18 19 20 20 21 22
8 8 7 7 6 6 6 6 5 5 4 4 4 3 3 3 3 4 4 5 5 3 2 2 1 2 4 4 4 4 3 3 3 3 3 4 4 5 6 5 4 4 3 3 2 2 1 1 2 4 4 4 4 4 5 5 4 4 4 5 6 7 8 10 11 12 13 13 14 14 15 15 16 17 17 18 18 19 19 20 20 21 21 22 23
8 8 7 7 6 6 6 6 5 5 4 4 4 3 3 3 4 5 4 6 6 4 3 2 1 1 2 2 2 2 3 2 2 3 4 3 3 4 6 6 5 5 4 3 3 2 1 1 1 1 2 3 3 4 4 4 4 4 5 6 8 10 11 13 14 14 15 15 16 16 16 17 17 18 18 19 19 19 20 20 21 21 22 23 23
9 9 8 7 7 6 6 6 6 5 4 4 4 4 4 4 4 5 5 5 6 5 4 3 2 1 2 3 2 2 2 2 2 3 3 3 3 4 5 5 5 5 4 4 3 3 2 2 2 1 1 3 4 4 4 4 4 5 7 9 11 12 14 14 15 16 16 16 16 17 17 17 17 18 18 18 18 18 19 20 21 23 23 23 24
9 9 9 8 7 6 6 6 6 5 5 3 3 4 4 5 4 4 4 4 5 5 5 4 3 2 3 3 3 2 2 1 1 2 2 2 3 3 4 4 4 5 4 4 4 3 3 2 3 3 2 3 4 4 4 4 5 7 10 12 13 14 15 15 16 16 16 16 17 17 17 17 17 17 17 17 18 19 20 22 23 23 23 24 24
9 9 9 8 8 7 7 7 6 5 5 5 4 4 3 4 5 4 4 4 4 4 4 4 4 4 3 4 3 2 3 2 1 1 1 1 1 1 3 3 3 3 3 3 3 3 3 3 3 3 2 3 3 4 4 5 7 9 11 13 13 14 14 15 16 16 17 17 17 17 17 17 17 17 17 18 19 21 22 23 23 23 22 22 21
8 8 9 8 8 7 7 7 7 6 6 5 5 4 3 3 4 4 4 4 4 4 4 4 4 5 5 5 4 3 3 3 2 1 1 1 1 1 1 2 1 2 2 2 2 2 3 3 3 3 3 3 3 4 5 6 7 9 11 12 13 13 13 15 17 18 18 19 18 18 18 18 18 18 18 19 21 22 23 22 22 21 20 19 18
9 9 9 8 8 8 8 8 7 6 6 5 5 5 5 4 4 4 3 3 3 4 4 4 4 5 5 5 5 4 4 3 3 2 1 1 0 1 0 1 0 1 2 1 2 2 2 3 3 3 3 2 3 4 5 6 8 10 12 13 13 13 14 17 18 19 20 20 20 19 19 19 19 19 20 20 21 21 20 19 19 19 19 19 18
11 10 9 9 9 8 8 8 7 7 6 6 6 6 6 5 5 4 3 3 3 4 4 4 4 5 4 4 5 4 4 4 3 2 2 2 1 1 1 0 1 1 1 1 1 2 2 2 2 1 1 2 3 4 4 6 9 11 12 14 14 14 16 18 19 20 21 21 21 21 20 20 20 20 20 20 19 18 17 17 18 18 20 20 20
12 11 10 9 9 9 8 8 8 7 7 6 6 6 6 6 5 5 4 4 4 4 4 4 4 5 4 4 4 4 4 4 4 3 3 3 2 1 2 1 2 2 2 1 2 3 2 2 0 1 2 2 4 4 4 7 10 12 13 15 15 15 16 17 19 20 22 22 22 22 21 20 20 20 19 18 16 15 15 17 19 20 21 21 21
12 12 11 10 10 9 9 9 9 8 8 7 6 6 6 6 6 6 5 5 5 4 4 4 4 4 5 5 5 4 4 4 4 4 4 3 3 2 1 1 1 1 2 2 3 3 2 2 1 3 4 4 5 5 5 8 10 12 14 14 15 15 16 17 19 21 22 23 23 22 21 20 19 19 18 17 15 14 16 19 21 22 22 21 20
13 13 11 11 11 10 10 9 9 9 8 8 7 7 7 6 7 7 6 5 5 5 4 4 4 4 4 5 5 4 4 4 4 3 4 4 4 3 1 0 1 1 1 2 3 3 1 1 3 5 5 5 6 6 6 9 10 12 14 14 14 16 16 17 19 21 23 23 23 22 22 20 18 18 17 16 14 15 18 22 23 24 23 21 19
15 13 13 13 12 11 11 11 10 10 9 9 9 8 8 7 7 8 7 7 7 6 5 4 4 4 4 4 4 4 5 5 4 3 5 5 5 4 3 1 1 1 1 2 2 2 1 1 2 6 7 5 5 6 7 9 10 12 14 14 14 16 17 18 19 21 22 23 23 23 22 19 18 18 18 16 15 17 20 23 25 24 23 21 19
16 14 14 14 13 12 12 12 11 11 11 10 10 9 9 8 8 8 8 8 9 8 6 6 5 5 5 5 5 4 5 5 4 4 5 4 4 5 4 4 3 2 3 3 3 2 1 1 1 4 7 5 4 5 7 9 11 12 14 15 14 16 17 18 18 20 22 22 23 23 21 18 17 18 19 17 17 19 22 24 25 24 23 21 19
18 17 16 15 14 14 13 13 12 12 12 12 11 10 10 10 9 9 8 9 9 8 7 6 5 6 6 6 6 5 5 5 5 5 6 5 5 5 6 6 5 4 5 5 5 4 2 3 3 3 6 6 5 5 6 9 11 12 14 15 15 16 18 20 20 19 20 22 23 23 22 18 17 18 19 18 19 21 23 24 25 25 23 21 19
19 19 18 16 16 16 15 13 13 13 13 13 12 12 11 11 10 9 9 10 9 9 9 7 6 7 7 6 6 5 5 5 5 6 6 6 6 6 7 7 7 7 6 6 6 6 4 5 5 4 5 7 7 8 8 8 11 13 13 14 15 15 16 19 22 20 19 21 23 23 22 18 17 18 19 19 19 21 22 24 25 25 23 21 20
20 20 19 18 18 17 15 14 13 14 14 14 13 13 13 12 11 11 11 11 10 10 10 9 9 9 8 7 7 7 7 7 6 6 7 7 7 6 7 7 7 7 8 7 7 7 6 6 5 5 6 7 7 9 9 8 10 12 13 13 14 14 13 14 19 21 20 20 21 22 21 19 17 18 19 19 19 20 22 23 25 24 23 21 20
21 21 21 20 19 19 17 16 16 16 15 15 14 15 15 14 13 12 11 11 11 11 11 10 10 10 9 8 8 8 8 8 8 8 7 7 7 7 8 7 7 7 8 8 8 8 8 7 6 6 7 8 7 9 10 9 10 12 12 11 11 13 15 13 13 19 20 20 20 20 20 18 17 17 19 19 18 19 21 23 24 23 22 20 19
21 21 22 21 21 21 19 18 19 18 18 17 16 16 17 16 15 14 13 13 12 12 12 12 11 11 10 10 9 9 9 10 10 9 8 9 9 9 9 9 9 8 9 9 9 9 9 8 8 7 7 9 9 10 11 11 12 12 11 12 11 12 16 13 11 17 21 20 19 19 18 18 17 17 18 19 19 19 20 22 23 23 22 20 19
22 22 22 22 22 23 21 21 20 20 20 20 19 18 19 18 17 16 16 15 14 14 14 13 12 12 11 11 11 10 10 11 11 10 10 10 10 10 10 10 10 10 10 11 10 10 11 11 10 9 10 11 11 11 11 11 12 13 12 13 13 12 15 13 10 15 21 21 19 18 17 17 17 17 18 18 19 19 20 21 23 22 22 21 19
23 23 23 23 23 24 23 22 22 21 21 21 21 21 20 20 20 18 17 16 15 15 14 14 13 13 12 12 12 11 11 12 12 11 10 11 11 10 10 10 11 11 11 12 12 12 13 13 13 12 12 13 12 12 13 12 13 14 14 14 15 14 15 13 9 12 20 22 21 19 18 17 17 17 17 18 18 19 20 21 22 22 22 21 20
24 24 24 24 24 24 23 23 23 22 22 22 22 22 22 21 21 20 18 17 16 15 15 14 14 14 14 14 13 13 13 13 12 12 11 12 12 12 12 12 12 12 12 13 13 14 14 14 14 14 13 13 14 14 15 15 14 14 14 15 14 14 15 14 11 11 14 17 20 22 20 18 18 17 17 18 19 19 20 20 21 21 21 21 21
24 24 24 25 25 24 24 23 24 23 23 23 23 24 23 23 23 22 19 18 17 16 16 15 15 15 15 15 15 15 16 15 15 14 13 13 13 13 14 13 13 14 13 13 14 14 14 14 13 13 12 13 14 15 15 17 16 15 16 15 13 12 14 16 16 14 11 13 17 19 20 21 21 18 17 17 18 19 20 20 20 21 21 21 21
24 24 23 24 25 25 25 24 25 25 25 24 24 24 25 25 25 24 22 20 20 19 18 17 17 16 16 16 16 16 17 17 17 16 15 15 15 15 15 15 15 15 14 13 14 15 15 14 13 13 13 14 15 16 16 16 16 15 14 14 15 15 14 15 16 16 15 13 13 14 17 19 20 20 19 19 19 19 20 20 20 20 21 21 21
24 24 23 23 24 25 26 26 26 26 27 27 26 26 26 26 26 25 24 23 23 22 22 21 20 19 19 18 17 16 18 19 18 18 17 17 17 16 16 17 17 17 17 16 16 17 17 16 15 15 15 15 15 15 14 13 13 13 14 15 17 17 14 13 14 15 16 13 10 10 14 16 16 17 18 18 19 20 21 21 21 20 21 22 21
26 25 25 24 24 24 26 27 28 28 29 29 30 29 28 27 27 27 26 26 26 25 25 24 23 22 22 20 19 20 21 21 20 20 20 20 20 20 19 19 19 18 19 19 19 20 19 19 18 16 15 15 14 13 12 12 12 13 13 14 15 15 13 13 13 14 15 14 11 12 14 14 12 12 11 12 15 19 21 21 21 21 20 21 21
28 27 27 27 26 25 25 26 28 30 31 32 32 32 31 30 29 29 29 29 29 28 28 28 27 26 25 24 23 23 24 24 22 22 22 22 22 22 22 22 22 21 21 21 21 21 21 21 19 17 16 16 16 15 14 13 12 12 13 14 15 16 15 13 12 12 15 15 13 16 17 15 14 13 10 9 11 15 19 19 19 19 19 19 21
30 29 28 28 28 27 26 26 27 29 30 32 35 34 33 32 32 31 31 31 31 31 31 31 31 30 29 28 27 24 24 26 26 24 23 23 23 23 23 23 24 25 25 24 24 23 23 22 21 19 18 18 18 18 17 15 13 14 16 17 17 18 18 16 14 12 14 16 16 18 17 15 17 16 11 10 11 14 17 19 18 19 18 19 19
30 31 29 28 28 28 28 28 28 29 30 32 35 35 34 34 34 33 34 34 33 32 32 33 33 33 33 32 31 29 27 27 28 27 25 25 24 24 24 25 26 27 27 28 27 27 26 25 25 24 23 22 22 21 20 19 18 18 19 19 18 18 19 19 18 16 16 18 18 19 18 16 17 15 10 13 18 18 17 17 18 18 18 19 19
30 31 31 30 30 29 29 29 30 30 30 32 35 36 35 34 35 35 35 36 36 36 35 35 35 35 35 34 33 33 31 30 31 30 28 27 26 26 26 27 27 28 28 29 29 29 29 30 30 30 29 27 26 26 25 24 23 21 20 20 20 19 19 20 21 21 21 21 20 21 21 17 14 12 10 13 19 20 17 16 17 18 18 18 19
26 27 29 29 30 30 30 29 29 30 30 30 32 34 34 35 35 36 37 38 39 39 39 38 38 37 37 36 35 35 34 33 33 32 31 29 28 28 28 29 28 29 29 30 30 30 30 31 32 31 30 30 28 27 26 25 24 22 20 19 20 20 20 21 22 23 23 22 21 21 22 17 12 12 11 11 17 21 20 17 16 17 18 18 18
24 24 24 24 25 27 29 29 29 30 30 30 30 31 32 33 34 35 37 39 40 41 41 40 40 39 39 38 38 37 37 36 35 34 32 31 30 30 30 31 30 30 30 31 31 31 31 31 32 31 30 29 28 29 27 24 24 23 21 20 20 21 21 22 23 23 20 19 18 19 22 19 13 12 11 10 16 19 17 17 17 16 17 19 18
25 25 24 22 21 22 24 26 29 30 30 30 31 30 30 31 31 32 34 36 39 40 41 41 41 41 41 40 39 39 39 39 37 36 34 32 32 32 32 32 31 31 31 30 29 31 32 31 31 31 31 30 30 30 30 28 27 26 24 24 24 23 22 21 22 20 17 16 16 16 19 19 15 13 11 11 16 16 12 14 18 17 16 19 19
25 26 25 24 24 23 22 22 25 28 29 30 30 30 30 30 30 31 32 33 36 38 40 41 41 42 43 42 41 41 40 40 39 38 36 34 34 34 33 32 33 33 34 30 26 27 30 31 30 30 30 31 32 31 32 31 30 28 27 28 28 25 24 22 21 20 19 18 16 17 19 19 16 13 11 10 15 16 13 14 18 18 17 18 19
24 24 24 25 27 27 26 24 24 26 28 29 29 30 30 30 30 31 31 33 35 37 38 40 41 42 43 44 43 43 41 40 40 39 38 36 35 35 34 33 34 35 35 32 27 25 25 26 29 30 30 30 31 32 33 32 31 30 30 29 29 27 26 25 23 21 20 18 16 17 19 18 14 13 12 11 12 14 15 17 20 21 19 19 19
Wind_Direction
116 117 119 121 116 109 104 102 98 90 89 91 87 83 80 79 78 79 84 89 93 97 97 95 97 99 98 94 92 94 96 97 97 96 97 93 82 79 81 80 83 88 91 94 96 95 91 88 85 79 71 62 56 53 51 47 44 43 43 43 38 32 28 24 21 16 10 13 19 23 25 31 41 50 54 56 57 52 45 40 39 39 38 39 39
124 125 128 126 118 110 106 101 94 92 91 90 87 83 80 79 78 78 80 83 88 90 92 95 96 96 97 96 94 92 92 90 87 86 86 89 87 82 84 84 83 85 86 89 90 89 87 85 79 69 62 56 51 48 47 43 39 38 35 33 27 23 23 21 16 11 11 19 25 25 32 42 47 50 52 51 48 42 35 33 34 34 33 34 33
131 129 130 126 118 111 106 99 95 99 94 89 92 89 86 87 87 84 81 78 80 85 88 92 93 93 94 95 97 95 93 88 82 84 84 91 96 89 84 84 84 87 88 84 80 80 80 79 74 67 58 52 50 45 39 35 33 30 24 22 20 19 21 22 18 16 22 28 31 35 44 47 47 48 46 44 39 33 30 29 30 29 30 30 28
133 130 129 124 117 111 108 106 103 103 101 103 102 94 86 86 86 83 79 74 74 81 84 88 92 92 92 92 95 95 94 93 91 94 90 85 88 87 83 82 80 77 79 78 76 73 70 70 68 67 66 60 55 47 38 29 24 21 16 16 17 16 19 26 29 30 36 40 43 47 49 46 45 44 41 38 32 26 23 21 21 21 21 20 18
132 128 123 122 119 114 113 115 112 111 113 112 102 91 84 79 76 72 71 72 71 75 81 88 91 90 90 90 94 95 90 89 90 92 90 80 82 85 81 78 77 70 65 64 67 69 65 63 65 68 69 65 60 53 46 38 32 29 30 32 26 25 32 39 42 45 48 50 51 49 47 44 41 38 33 29 21 15 11 7 6 5 4 3 2
132 127 120 118 119 118 120 127 126 115 111 109 93 82 85 78 73 67 66 68 66 73 84 89 90 93 96 94 95 93 89 89 88 88 91 91 88 87 81 72 73 68 63 61 60 63 66 66 67 67 66 63 62 64 64 61 56 51 49 47 44 47 54 58 58 58 56 53 48 42 38 35 29 24 16 10 3 358 356 352 352 350 349 347 346
131 127 123 118 117 121 125 133 130 111 106 109 94 82 86 80 75 69 66 66 64 74 87 92 94 98 101 99 97 94 91 88 85 83 84 88 84 81 83 75 64 56 54 62 61 55 59 65 63 64 67 69 69 71 73 70 66 62 60 60 63 69 71 70 67 61 55 46 37 27 20 15 10 6 0 356 351 350 349 346 345 343 342 340 339
136 131 126 122 119 125 132 135 126 109 111 110 93 80 81 88 92 82 75 67 63 71 82 91 96 98 100 100 98 94 92 85 82 83 83 86 83 73 69 65 64 68 67 65 61 53 44 50 57 63 69 73 74 74 74 75 74 73 71 72 73 74 71 67 62 54 45 33 22 13 7 4 0 356 353 350 347 348 347 345 342 340 338 335 333
144 142 134 127 124 126 138 141 128 116 118 105 93 89 83 93 105 100 92 73 64 71 76 81 89 94 98 101 100 91 88 84 83 85 78 75 76 74 68 60 62 70 73 61 50 50 46 48 62 71 72 74 75 77 79 80 81 80 78 77 74 69 64 57 50 42 31 21 14 9 3 358 354 351 348 347 346 345 344 340 338 335 332 329 328
149 149 144 138 132 133 146 150 139 126 117 99 89 93 90 99 108 115 111 88 72 70 70 74 80 87 96 102 103 91 84 81 79 77 70 67 67 77 79 71 66 64 74 80 60 56 62 64 71 74 72 76 80 82 84 85 84 83 79 74 68 61 53 45 38 29 20 13 8 4 360 355 351 348 346 344 343 341 338 335 333 331 328 326 324
153 154 153 148 138 140 151 153 150 133 116 99 87 94 108 112 115 126 125 105 85 70 64 69 71 74 88 101 100 93 92 81 73 72 73 77 74 77 76 70 72 62 66 76 66 52 63 73 75 75 72 74 81 83 84 83 81 76 71 65 58 51 42 34 25 18 11 6 3 360 357 353 350 347 344 343 341 339 336 333 330 329 327 325 323
153 157 159 155 145 147 155 150 145 140 130 120 121 155 158 141 138 141 133 114 90 71 56 55 63 61 70 100 113 103 98 86 77 77 80 84 76 76 81 76 77 73 62 69 80 66 61 73 76 72 66 70 75 74 75 74 71 67 62 55 48 40 33 26 18 14 8 2 359 355 353 350 348 346 344 342 339 338 335 332 330 328 326 324 323
154 156 159 157 152 153 156 150 143 143 144 144 156 166 171 171 163 156 146 117 83 69 52 41 47 60 63 98 121 117 106 91 88 91 90 89 82 76 83 86 80 77 73 68 78 79 58 63 69 64 60 67 67 63 65 66 62 59 54 49 44 38 30 23 16 10 4 360 356 352 350 347 344 342 340 338 336 335 332 330 328 327 325 323 321
157 156 157 153 155 156 153 156 154 147 144 147 156 154 174 191 171 150 154 140 113 90 71 60 48 66 88 108 125 123 112 101 98 102 101 96 93 82 77 89 89 81 82 68 58 63 50 42 54 62 67 71 67 61 60 61 58 54 51 47 41 35 28 19 12 7 2 359 354 350 346 342 339 336 334 333 330 329 327 325 324 322 320 318 316
160 159 158 156 160 158 153 163 161 149 142 147 153 152 172 184 175 166 159 142 129 102 76 76 74 75 101 114 126 127 113 106 105 102 103 96 93 90 80 88 95 89 90 83 66 65 70 49 56 68 71 72 70 65 60 56 52 50 47 42 35 28 22 14 5 2 358 353 348 344 340 336 333 329 327 324 322 321 318 316 315 314 313 312 311
168 163 160 163 165 162 161 169 164 152 153 159 151 148 160 168 179 179 155 127 124 117 88 78 77 74 96 116 127 129 114 110 112 104 102 96 85 83 84 92 96 88 90 96 95 85 78 41 51 66 70 71 72 69 64 57 50 48 43 38 31 20 12 3 356 353 348 342 337 332 329 325 323 320 318 317 315 314 313 313 313 313 313 313 313
174 167 165 169 170 171 169 166 162 161 165 163 150 152 155 159 181 174 151 147 146 141 117 93 75 68 83 111 126 121 99 102 117 107 91 90 87 82 78 91 99 89 93 102 88 72 74 4 27 53 62 65 68 67 65 61 52 46 41 33 24 10 0 352 346 341 335 330 326 322 319 317 316 315 315 315 314 315 315 316 317 317 318 318 317
177 171 169 176 178 176 171 165 165 171 175 168 154 150 145 157 179 165 160 168 158 152 152 135 97 61 78 108 119 105 80 87 114 113 96 79 88 95 82 86 100 92 90 94 72 65 75 2 16 31 41 51 60 64 66 66 56 45 33 19 6 355 349 345 340 335 330 325 321 318 316 315 315 315 315 316 317 319 321 322 322 322 322 322 321
181 182 178 184 186 180 174 169 170 175 181 176 157 145 154 171 179 169 177 182 165 163 180 174 187 91 111 134 127 106 94 84 89 116 115 84 86 103 89 89 99 93 89 90 89 85 69 61 52 26 17 33 51 64 65 62 47 30 16 3 354 349 347 344 341 337 331 325 321 318 317 317 318 319 320 322 324 326 327 328 328 327 326 325 325
185 190 190 193 192 186 182 174 176 180 177 176 168 166 174 172 172 172 180 181 168 171 189 195 207 182 167 163 153 136 112 89 88 118 122 107 108 105 91 92 95 89 85 83 82 78 62 60 74 75 37 32 50 62 59 48 27 10 1 354 349 346 344 342 340 336 332 328 326 324 324 325 327 328 329 331 332 333 333 332 331 329 328 327 327
192 194 196 202 199 193 191 183 184 183 170 177 193 186 177 165 162 170 171 177 180 185 194 199 198 189 182 165 160 157 135 115 98 107 106 110 112 109 106 103 97 87 74 71 74 75 72 56 57 68 53 35 41 45 36 20 5 354 349 346 343 340 339 339 339 339 339 339 338 337 336 336 337 337 338 338 338 337 335 332 331 330 329 329 329
199 201 201 204 203 198 197 192 189 187 176 185 198 190 174 161 161 168 169 177 185 185 189 195 188 183 189 181 171 167 158 162 164 127 121 120 122 137 126 113 104 97 69 62 75 77 76 64 61 72 66 36 21 15 3 351 349 345 342 340 338 338 341 344 347 349 350 351 350 349 347 345 344 343 342 340 338 336 334 332 332 332 333 334 336
201 208 207 205 206 200 198 196 194 193 185 186 189 177 170 170 169 172 171 172 172 170 177 191 190 181 191 200 192 186 182 178 186 183 132 124 269 270 107 76 82 102 75 64 84 81 76 79 80 79 66 37 4 354 344 338 343 343 342 343 342 343 349 353 355 357 357 357 355 351 349 347 347 345 341 339 337 336 336 336 338 339 342 345 347
204 209 210 208 208 201 201 201 197 197 192 189 188 178 175 183 187 180 176 179 174 173 176 185 196 186 192 208 204 204 205 196 194 195 187 160 216 267 329 60 166 120 88 85 113 110 90 90 91 77 54 17 346 346 342 335 336 342 346 348 349 350 354 357 357 358 359 358 354 350 349 348 346 343 340 338 337 338 341 344 346 348 352 354 354
210 211 211 213 214 208 206 205 201 200 200 199 198 193 186 187 192 187 192 210 195 186 186 185 195 192 190 207 207 208 211 205 209 213 225 234 203 256 301 288 230 189 120 131 160 151 131 106 97 82 44 2 338 338 351 338 331 342 350 349 352 353 354 355 355 356 359 358 354 352 350 348 346 343 341 339 340 343 349 354 356 359 0 0 359
216 213 211 214 219 218 214 210 208 207 206 205 207 209 202 198 202 188 195 227 214 192 195 194 201 198 193 206 206 208 215 213 223 231 234 237 218 247 310 288 248 218 165 177 177 169 158 133 112 298 291 319 324 322 337 330 327 340 350 351 351 350 349 350 352 355 357 356 355 354 353 350 347 344 343 342 344 351 358 3 5 6 6 4 2
222 218 213 212 216 221 220 217 216 214 212 209 209 217 216 217 221 204 200 228 225 202 201 202 210 209 204 209 206 211 224 222 230 237 232 232 229 239 305 332 292 237 185 176 178 177 160 163 216 292 292 303 317 315 318 322 327 339 348 352 346 340 343 348 350 354 355 355 356 355 354 353 349 346 345 346 350 357 4 8 9 9 8 5 2
223 220 215 213 214 217 219 221 221 219 219 217 214 219 222 223 231 226 212 223 237 225 211 211 215 215 220 221 211 211 226 224 224 233 227 224 225 231 251 344 337 285 231 183 181 176 147 195 253 291 294 302 315 312 317 323 328 338 345 346 337 332 340 346 349 353 353 353 355 356 355 355 350 347 349 351 353 359 5 7 8 8 7 5 2
224 222 220 217 215 215 217 220 222 222 222 224 221 222 227 226 229 232 218 218 241 242 223 220 218 213 222 232 225 219 229 230 224 236 235 226 224 233 240 236 250 292 272 228 208 202 195 209 275 296 297 302 318 320 323 323 326 336 340 338 331 329 335 342 346 350 351 353 354 355 356 354 350 349 353 354 353 359 6 6 5 5 5 5 2
224 225 225 220 215 216 219 220 222 223 224 227 227 225 230 231 230 232 225 221 236 243 233 227 222 214 213 219 228 227 233 236 225 238 248 237 228 232 234 235 243 268 277 281 270 238 250 294 285 300 305 308 320 322 318 318 323 331 332 329 327 325 328 334 342 347 350 353 354 355 356 353 349 350 354 355 354 360 4 2 1 2 3 4 2
224 225 226 223 219 218 220 223 224 224 225 227 228 228 230 234 234 234 238 235 234 235 237 233 231 232 222 217 224 227 233 236 225 232 247 246 234 229 232 240 246 254 265 279 275 255 261 291 281 298 308 305 306 307 308 314 317 321 324 322 321 323 326 331 338 346 350 351 352 353 353 352 349 350 354 354 355 359 0 359 359 359 0 2 1
225 226 226 226 227 223 221 225 227 228 229 228 228 229 230 234 235 231 236 242 238 233 233 228 230 240 237 230 233 235 237 241 239 241 250 253 244 234 236 243 249 257 261 265 271 275 277 272 274 287 292 295 304 305 307 312 311 314 318 317 318 324 329 330 332 340 348 350 351 351 351 351 349 350 354 353 354 357 358 358 358 357 358 358 357
224 224 224 226 229 229 226 226 227 229 232 231 230 231 230 232 235 230 231 237 238 236 234 228 227 237 243 242 242 245 246 246 245 246 251 256 253 247 244 245 247 253 257 256 263 275 280 271 267 271 276 285 296 300 304 306 303 307 311 311 316 320 324 327 324 330 343 348 348 349 349 348 348 349 353 352 352 355 358 359 358 355 354 354 354
226 224 224 225 229 231 230 229 231 232 233 232 232 233 233 233 234 234 235 239 239 237 237 234 232 236 242 244 246 249 254 255 253 250 249 252 252 250 251 251 248 247 253 256 256 266 277 275 268 270 278 285 289 295 301 300 298 301 303 307 312 312 318 326 317 319 335 344 344 346 347 346 345 347 351 351 351 354 358 0 359 355 352 350 351
231 228 225 225 229 231 231 232 234 235 235 232 232 235 237 236 235 235 235 239 240 238 238 237 236 239 242 245 247 248 250 254 256 253 248 248 247 246 248 249 248 245 249 255 255 261 271 273 271 271 273 280 286 294 299 301 302 303 302 304 309 308 314 327 318 311 325 338 339 342 344 343 343 344 347 349 350 353 357 360 360 356 351 348 348
234 233 229 227 230 232 231 232 235 235 235 234 233 234 239 240 239 239 239 240 240 239 239 237 236 239 242 244 246 244 244 248 252 251 248 248 250 251 252 255 257 253 250 253 256 260 267 272 274 273 273 278 286 293 297 300 301 303 302 301 306 306 309 325 324 304 314 327 331 336 342 341 339 341 344 346 348 352 355 357 359 357 351 348 346
230 235 235 231 231 232 231 231 234 235 235 235 235 234 238 241 242 243 245 245 241 238 238 238 237 239 241 244 245 244 245 248 252 252 249 249 251 252 252 254 258 260 257 259 260 261 267 273 275 278 282 286 289 290 293 296 297 300 302 302 305 304 304 316 320 301 310 320 324 330 338 337 335 337 339 343 347 350 352 353 355 355 352 348 346
229 232 237 237 234 234 232 231 233 236 236 236 237 236 236 240 242 244 245 245 243 239 237 239 240 243 245 247 248 248 248 248 250 250 249 251 253 252 252 253 256 259 261 263 265 265 268 273 276 280 284 286 287 289 292 294 293 293 295 298 301 301 301 306 310 309 315 318 319 324 330 331 333 334 334 339 344 347 349 348 349 352 352 349 346
233 230 234 240 240 238 236 234 233 235 236 236 237 237 236 237 240 241 241 243 245 244 243 243 244 246 248 250 252 252 252 252 251 251 251 254 256 255 256 258 259 260 262 262 265 267 268 270 273 275 276 277 280 285 290 292 293 293 294 294 292 290 294 300 303 307 307 304 309 317 323 326 328 327 328 335 342 345 345 344 345 348 350 350 347
237 233 232 238 243 243 241 238 237 238 238 236 236 237 236 235 237 240 241 243 245 248 250 250 249 249 250 251 253 253 254 255 254 253 252 253 255 256 258 259 259 261 260 255 257 263 264 265 266 267 268 270 275 281 285 288 292 293 292 289 287 287 289 293 298 302 303 305 309 312 315 321 322 322 325 332 339 342 340 339 341 343 347 348 346
240 236 232 232 239 244 244 242 240 240 241 240 237 235 234 233 234 238 242 244 245 248 251 253 253 253 253 252 252 251 253 255 255 254 254 253 254 254 255 257 258 259 260 257 256 261 263 264 265 266 269 270 273 277 277 276 280 284 286 288 289 289 288 288 293 297 299 307 312 302 306 314 316 320 325 326 333 338 335 334 338 340 342 344 343
245 243 239 235 234 238 244 245 243 241 242 242 240 236 234 233 234 236 240 244 246 247 250 253 253 255 256 256 254 254 256 257 255 254 253 252 254 254 254 256 256 256 258 258 258 260 263 265 265 264 264 264 266 267 266 269 274 278 284 287 286 285 285 287 292 295 296 302 304 299 306 309 301 305 314 310 319 331 331 331 334 335 337 338 338
248 247 246 244 240 237 239 242 244 243 243 243 243 239 236 235 235 237 240 243 246 248 249 252 254 255 256 258 259 261 263 261 257 255 253 252 253 254 254 255 255 254 254 255 257 258 260 262 263 261 260 261 263 265 266 270 272 269 271 277 280 281 283 285 288 290 293 295 297 303 312 312 299 299 299 287 302 321 323 325 327 327 330 332 332
252 251 250 249 247 242 240 240 242 243 244 245 245 243 240 238 237 238 241 244 247 249 251 252 254 255 257 258 259 260 262 263 262 259 256 254 253 253 254 255 255 255 254 254 255 256 257 259 259 258 259 260 263 267 268 268 267 264 267 274 277 278 279 281 282 283 287 289 293 300 308 308 303 304 300 286 296 312 317 320 321 321 325 327 327
254 255 254 253 252 249 245 243 244 244 245 247 248 246 243 242 240 240 243 245 248 250 252 253 255 256 256 257 258 257 258 262 265 264 261 257 255 253 253 253 254 255 256 255 255 255 256 257 257 259 261 262 265 269 271 271 271 270 271 272 273 275 277 279 280 279 282 288 294 298 299 300 301 301 295 291 298 306 315 317 315 316 320 321 322
255 258 258 258 258 256 252 249 249 248 247 249 250 249 246 244 243 243 243 245 247 249 251 254 255 256 256 256 256 257 258 259 262 263 263 262 259 257 255 254 254 255 256 257 257 257 257 256 256 259 262 264 267 272 274 275 276 277 275 270 268 270 272 274 277 278 280 286 290 291 291 294 291 283 280 286 292 301 314 316 312 313 315 315 316
252 257 261 262 262 262 260 257 255 254 252 251 252 251 248 245 244 244 245 245 247 248 250 252 253 254 255 255 255 256 256 257 258 260 261 262 262 261 259 258 258 258 258 258 259 259 259 260 261 262 264 266 268 271 273 274 274 277 276 270 268 269 270 272 275 277 281 286 287 287 289 291 281 270 275 279 281 293 309 314 309 308 310 311 313
246 247 252 256 259 261 264 265 264 261 257 255 254 252 250 248 246 246 246 246 246 247 248 250 251 252 253 253 254 255 255 256 256 257 258 260 260 260 260 260 261 261 261 262 263 263 262 263 264 265 265 265 265 268 270 269 268 270 270 269 269 269 270 274 276 277 278 279 280 282 287 290 283 270 270 268 271 283 300 308 308 307 306 308 310
251 248 244 243 248 253 258 263 267 266 262 258 256 253 251 250 248 247 246 246 246 247 248 249 250 251 251 251 252 253 254 255 255 255 255 256 257 257 257 258 259 260 260 261 263 266 266 264 264 265 266 265 264 265 268 267 265 264 263 265 267 267 269 272 273 274 272 268 266 268 274 282 283 275 269 264 270 277 280 290 302 308 304 303 306
252 253 249 245 244 242 241 247 257 263 263 260 258 254 251 249 249 248 247 247 247 248 248 249 249 250 251 251 251 251 251 253 254 254 254 253 253 254 254 255 256 258 259 258 257 262 268 268 266 263 263 264 264 265 266 266 266 263 260 262 266 266 265 266 266 267 269 268 262 255 260 271 278 275 269 261 272 282 276 275 296 307 302 298 301
248 249 250 251 251 246 238 235 240 250 256 257 256 253 249 247 246 246 246 247 247 247 248 249 249 250 251 252 251 251 250 251 252 252 253 252 251 251 252 253 254 256 259 259 254 253 258 265 269 268 265 263 262 263 263 264 263 261 259 261 263 261 260 261 262 262 265 268 264 256 258 267 272 269 265 260 269 282 280 277 289 298 297 295 296